DLH918 EDDF-EGLL

Flight info

Callsign DLH918
Flight time 1h 10m
Altitude 38000
Route OBOKA3W/25C OBOKA Z29 TORNU DCT ABNED L980 LOGAN
Aircraft A321/M-SDE2E3FGIJ1LORWXYZ/HB1

Departure

Time 2026-05-05 20:33
Airport Frankfurt Main Airport (EDDF)

Arrival

Time 2026-05-05 21:44
Airport London Heathrow Airport (EGLL)
Time Latitude Longitude Altitude Speed Heading
2026-05-05 20:06 50.04535 8.56579 367 ft 0 kts 115°
2026-05-05 20:20 50.04538 8.56568 367 ft 2 kts 115°
2026-05-05 20:20 50.04544 8.56546 367 ft 2 kts 115°
2026-05-05 20:20 50.04551 8.56525 367 ft 2 kts 115°
2026-05-05 20:21 50.04557 8.56503 367 ft 2 kts 115°
2026-05-05 20:21 50.04563 8.56482 367 ft 2 kts 115°
2026-05-05 20:21 50.04574 8.56466 366 ft 2 kts 162°
2026-05-05 20:21 50.04588 8.56464 366 ft 1 kts 199°
2026-05-05 20:22 50.04591 8.56466 366 ft 1 kts 206°
2026-05-05 20:22 50.04579 8.56459 366 ft 0 kts 201°
2026-05-05 20:25 50.04578 8.56459 366 ft 0 kts 201°
2026-05-05 20:25 50.04551 8.56442 366 ft 8 kts 204°
2026-05-05 20:25 50.04507 8.56346 364 ft 12 kts 250°
2026-05-05 20:26 50.04475 8.56210 363 ft 13 kts 250°
2026-05-05 20:26 50.04443 8.56073 363 ft 11 kts 248°
2026-05-05 20:26 50.04371 8.56037 361 ft 13 kts 163°
2026-05-05 20:26 50.04299 8.56093 360 ft 11 kts 126°
2026-05-05 20:27 50.04290 8.56189 360 ft 9 kts 116°
2026-05-05 20:27 50.04231 8.56244 358 ft 11 kts 161°
2026-05-05 20:27 50.04159 8.56286 357 ft 10 kts 156°
2026-05-05 20:27 50.04152 8.56389 357 ft 11 kts 69°
2026-05-05 20:28 50.04187 8.56529 358 ft 17 kts 69°
2026-05-05 20:28 50.04228 8.56702 360 ft 16 kts 71°
2026-05-05 20:28 50.04264 8.56853 365 ft 15 kts 69°
2026-05-05 20:28 50.04309 8.57039 366 ft 21 kts 70°
2026-05-05 20:29 50.04365 8.57278 368 ft 24 kts 69°
2026-05-05 20:29 50.04424 8.57523 365 ft 24 kts 70°
2026-05-05 20:29 50.04481 8.57759 368 ft 21 kts 70°
2026-05-05 20:29 50.04529 8.57961 373 ft 18 kts 70°
2026-05-05 20:30 50.04572 8.58143 374 ft 17 kts 70°
2026-05-05 20:30 50.04623 8.58357 375 ft 25 kts 70°
2026-05-05 20:30 50.04647 8.58532 369 ft 15 kts 115°
2026-05-05 20:30 50.04554 8.58611 364 ft 10 kts 160°
2026-05-05 20:31 50.04494 8.58604 363 ft 8 kts 229°
2026-05-05 20:31 50.04478 8.58553 365 ft 0 kts 250°
2026-05-05 20:32 50.04414 8.58283 372 ft 63 kts 250°
2026-05-05 20:33 50.04172 8.57270 362 ft 134 kts 249°
2026-05-05 20:33 50.03792 8.55672 577 ft 169 kts 250°
2026-05-05 20:33 50.03399 8.54002 1301 ft 169 kts 249°
2026-05-05 20:33 50.02988 8.52342 2102 ft 164 kts 249°
2026-05-05 20:34 50.02564 8.50682 2586 ft 172 kts 243°
2026-05-05 20:34 50.01799 8.49178 2856 ft 187 kts 222°
2026-05-05 20:34 50.00614 8.48167 3204 ft 199 kts 199°
2026-05-05 20:34 49.99237 8.47756 3674 ft 205 kts 191°
2026-05-05 20:35 49.97821 8.47454 4203 ft 209 kts 190°
2026-05-05 20:35 49.96402 8.47120 4798 ft 209 kts 194°
2026-05-05 20:35 49.94982 8.46573 5296 ft 215 kts 199°
2026-05-05 20:35 49.93469 8.45888 5536 ft 237 kts 199°
2026-05-05 20:36 49.91918 8.44963 6055 ft 244 kts 214°
2026-05-05 20:36 49.90721 8.43164 6825 ft 242 kts 237°
2026-05-05 20:36 49.89852 8.40959 7607 ft 243 kts 240°
2026-05-05 20:36 49.89033 8.38697 8359 ft 245 kts 247°
2026-05-05 20:37 49.88600 8.36132 9096 ft 249 kts 264°
2026-05-05 20:37 49.88592 8.34347 9445 ft 259 kts 271°
2026-05-05 20:37 49.88798 8.30499 10130 ft 276 kts 273°
2026-05-05 20:37 49.89153 8.27492 10559 ft 294 kts 285°
2026-05-05 20:38 49.90015 8.24513 10958 ft 313 kts 299°
2026-05-05 20:38 49.91266 8.21759 11609 ft 319 kts 304°
2026-05-05 20:38 49.92612 8.18994 12307 ft 322 kts 305°
2026-05-05 20:38 49.94053 8.16342 12994 ft 327 kts 310°
2026-05-05 20:39 49.95695 8.13819 13649 ft 333 kts 315°
2026-05-05 20:39 49.97442 8.11451 14268 ft 337 kts 317°
2026-05-05 20:39 49.99224 8.09086 14908 ft 341 kts 317°
2026-05-05 20:39 50.01037 8.06687 15527 ft 346 kts 316°
2026-05-05 20:40 50.02860 8.04265 16119 ft 350 kts 317°
2026-05-05 20:40 50.04726 8.01776 16696 ft 354 kts 317°
2026-05-05 20:40 50.06582 7.99290 17241 ft 358 kts 317°
2026-05-05 20:40 50.08474 7.96748 17810 ft 363 kts 317°
2026-05-05 20:41 50.10383 7.94184 18358 ft 367 kts 317°
2026-05-05 20:41 50.12322 7.91574 18920 ft 370 kts 317°
2026-05-05 20:41 50.14286 7.88931 19466 ft 374 kts 317°
2026-05-05 20:41 50.16237 7.86300 20009 ft 376 kts 318°
2026-05-05 20:42 50.18218 7.83627 20535 ft 379 kts 318°
2026-05-05 20:42 50.20203 7.80946 21054 ft 382 kts 318°
2026-05-05 20:42 50.22216 7.78221 21550 ft 386 kts 318°
2026-05-05 20:42 50.24306 7.75531 22047 ft 389 kts 323°
2026-05-05 20:43 50.26555 7.73224 22524 ft 393 kts 330°
2026-05-05 20:43 50.29022 7.71281 23010 ft 396 kts 336°
2026-05-05 20:43 50.31499 7.69381 23486 ft 399 kts 333°
2026-05-05 20:43 50.33934 7.67362 23944 ft 402 kts 332°
2026-05-05 20:44 50.36422 7.65278 24375 ft 406 kts 332°
2026-05-05 20:44 50.38915 7.63201 24766 ft 410 kts 333°
2026-05-05 20:44 50.41436 7.61118 25163 ft 413 kts 333°
2026-05-05 20:44 50.43987 7.59017 25549 ft 417 kts 333°
2026-05-05 20:45 50.49148 7.54768 26336 ft 423 kts 333°
2026-05-05 20:45 50.51756 7.52620 26689 ft 427 kts 333°
2026-05-05 20:45 50.54379 7.50459 27061 ft 430 kts 333°
2026-05-05 20:46 50.57046 7.48260 27439 ft 434 kts 333°
2026-05-05 20:46 50.59730 7.46044 27798 ft 437 kts 333°
2026-05-05 20:46 50.62441 7.43803 28158 ft 440 kts 333°
2026-05-05 20:46 50.65144 7.41563 28472 ft 443 kts 333°
2026-05-05 20:47 50.67857 7.39315 28795 ft 447 kts 334°
2026-05-05 20:47 50.70602 7.36966 29096 ft 451 kts 329°
2026-05-05 20:47 50.73125 7.34035 29403 ft 454 kts 318°
2026-05-05 20:47 50.75304 7.30424 29716 ft 455 kts 307°
2026-05-05 20:48 50.77043 7.26298 30018 ft 456 kts 297°
2026-05-05 20:48 50.78506 7.21891 30323 ft 458 kts 295°
2026-05-05 20:48 50.79924 7.17372 30591 ft 461 kts 294°
2026-05-05 20:48 50.81343 7.12846 30850 ft 464 kts 294°
2026-05-05 20:49 50.82807 7.08239 31099 ft 467 kts 295°
2026-05-05 20:49 50.84268 7.03695 31352 ft 470 kts 295°
2026-05-05 20:49 50.85754 6.99094 31652 ft 471 kts 295°
2026-05-05 20:49 50.87236 6.94507 32021 ft 470 kts 295°
2026-05-05 20:50 50.88709 6.89939 32419 ft 469 kts 295°
2026-05-05 20:50 50.89693 6.86875 32680 ft 468 kts 295°
2026-05-05 20:50 50.91652 6.80767 33165 ft 466 kts 295°
2026-05-05 20:50 50.93106 6.76225 33508 ft 466 kts 295°
2026-05-05 20:51 50.94558 6.71681 33850 ft 465 kts 295°
2026-05-05 20:51 50.96014 6.67117 34195 ft 464 kts 294°
2026-05-05 20:51 50.97465 6.62566 34534 ft 463 kts 294°
2026-05-05 20:51 50.98909 6.58024 34855 ft 462 kts 294°
2026-05-05 20:52 51.00347 6.53493 35101 ft 462 kts 294°
2026-05-05 20:52 51.01776 6.48972 35324 ft 461 kts 294°
2026-05-05 20:52 51.03221 6.44400 35550 ft 459 kts 294°
2026-05-05 20:52 51.04629 6.39939 35769 ft 457 kts 294°
2026-05-05 20:53 51.06058 6.35406 35961 ft 456 kts 294°
2026-05-05 20:53 51.07464 6.30938 36148 ft 454 kts 293°
2026-05-05 20:53 51.08862 6.26481 36310 ft 453 kts 294°
2026-05-05 20:53 51.10255 6.22029 36484 ft 453 kts 293°
2026-05-05 20:54 51.11664 6.17522 36674 ft 453 kts 293°
2026-05-05 20:54 51.12956 6.13042 36829 ft 452 kts 290°
2026-05-05 20:54 51.14091 6.08384 36999 ft 451 kts 286°
2026-05-05 20:54 51.14746 6.05214 37118 ft 450 kts 284°
2026-05-05 20:55 51.15837 5.98850 37355 ft 448 kts 281°
2026-05-05 20:55 51.16600 5.94109 37505 ft 448 kts 281°
2026-05-05 20:55 51.18228 5.84530 37777 ft 450 kts 285°
2026-05-05 20:56 51.20442 5.75182 37842 ft 452 kts 290°
2026-05-05 20:56 51.22881 5.65967 37838 ft 451 kts 290°
2026-05-05 20:57 51.25303 5.56800 37848 ft 451 kts 290°
2026-05-05 20:57 51.27706 5.47640 37854 ft 450 kts 290°
2026-05-05 20:58 51.30104 5.38451 37852 ft 449 kts 290°
2026-05-05 20:58 51.32499 5.29225 37860 ft 449 kts 290°
2026-05-05 20:59 51.34876 5.20037 37871 ft 450 kts 290°
2026-05-05 20:59 51.37244 5.10846 37864 ft 449 kts 289°
2026-05-05 21:00 51.39598 5.01670 37873 ft 448 kts 289°
2026-05-05 21:00 51.41962 4.92413 37868 ft 448 kts 289°
2026-05-05 21:01 51.44296 4.83237 37869 ft 448 kts 289°
2026-05-05 21:01 51.46630 4.74017 37855 ft 447 kts 290°
2026-05-05 21:02 51.48954 4.64809 37863 ft 448 kts 290°
2026-05-05 21:02 51.51284 4.55543 37869 ft 447 kts 289°
2026-05-05 21:03 51.53578 4.46381 37881 ft 446 kts 289°
2026-05-05 21:03 51.55883 4.37128 37882 ft 446 kts 290°
2026-05-05 21:04 51.58168 4.27914 37876 ft 446 kts 289°
2026-05-05 21:04 51.60438 4.18730 37881 ft 445 kts 289°
2026-05-05 21:05 51.62713 4.09485 37899 ft 444 kts 289°
2026-05-05 21:05 51.64968 4.00281 37903 ft 444 kts 289°
2026-05-05 21:06 51.67223 3.91044 37894 ft 444 kts 289°
2026-05-05 21:06 51.69465 3.81817 37897 ft 444 kts 289°
2026-05-05 21:07 51.71695 3.72600 37904 ft 444 kts 289°
2026-05-05 21:07 51.73929 3.63332 37906 ft 444 kts 289°
2026-05-05 21:08 51.76147 3.54092 37910 ft 444 kts 289°
2026-05-05 21:08 51.78364 3.44821 37899 ft 444 kts 289°
2026-05-05 21:09 51.80568 3.35556 37909 ft 443 kts 289°
2026-05-05 21:09 51.82622 3.26211 37905 ft 441 kts 283°
2026-05-05 21:10 51.83836 3.16569 37922 ft 439 kts 275°
2026-05-05 21:10 51.84111 3.06756 37921 ft 436 kts 266°
2026-05-05 21:11 51.83594 2.97026 37911 ft 436 kts 262°
2026-05-05 21:11 51.82948 2.87338 37909 ft 436 kts 262°
2026-05-05 21:12 51.82307 2.77669 37694 ft 430 kts 262°
2026-05-05 21:12 51.81991 2.72898 37198 ft 429 kts 262°
2026-05-05 21:12 51.81672 2.68111 36659 ft 428 kts 262°
2026-05-05 21:13 51.81353 2.63405 36275 ft 426 kts 262°
2026-05-05 21:13 51.81027 2.58689 35921 ft 425 kts 261°
2026-05-05 21:13 51.80696 2.53940 35534 ft 426 kts 261°
2026-05-05 21:13 51.80365 2.49210 35078 ft 426 kts 261°
2026-05-05 21:14 51.80036 2.44523 34376 ft 427 kts 261°
2026-05-05 21:14 51.79701 2.39786 33625 ft 429 kts 261°
2026-05-05 21:14 51.79362 2.35008 32843 ft 431 kts 261°
2026-05-05 21:14 51.79016 2.30172 32047 ft 433 kts 260°
2026-05-05 21:15 51.78671 2.25378 31255 ft 434 kts 260°
2026-05-05 21:15 51.78334 2.20610 30680 ft 431 kts 261°
2026-05-05 21:15 51.78043 2.15814 30129 ft 427 kts 262°
2026-05-05 21:15 51.77771 2.11087 29580 ft 423 kts 262°
2026-05-05 21:16 51.77496 2.06328 29024 ft 419 kts 262°
2026-05-05 21:16 51.77229 2.01742 28470 ft 415 kts 262°
2026-05-05 21:16 51.76956 1.97125 27918 ft 411 kts 263°
2026-05-05 21:16 51.76686 1.92601 27664 ft 400 kts 263°
2026-05-05 21:17 51.76421 1.88191 27444 ft 389 kts 263°
2026-05-05 21:17 51.76163 1.83924 27232 ft 378 kts 263°
2026-05-05 21:17 51.75911 1.79799 27024 ft 367 kts 263°
2026-05-05 21:17 51.75663 1.75749 26820 ft 357 kts 263°
2026-05-05 21:18 51.75422 1.71860 26616 ft 347 kts 263°
2026-05-05 21:18 51.75182 1.68048 26135 ft 346 kts 264°
2026-05-05 21:18 51.74936 1.64149 25268 ft 356 kts 264°
2026-05-05 21:18 51.74683 1.60168 24788 ft 353 kts 264°
2026-05-05 21:19 51.74435 1.56269 24373 ft 350 kts 264°
2026-05-05 21:19 51.74185 1.52380 23715 ft 354 kts 265°
2026-05-05 21:19 51.73936 1.48481 23210 ft 353 kts 264°
2026-05-05 21:19 51.73685 1.44557 22761 ft 351 kts 264°
2026-05-05 21:20 51.73438 1.40691 22349 ft 348 kts 264°
2026-05-05 21:20 51.73186 1.36823 21935 ft 345 kts 264°
2026-05-05 21:20 51.72930 1.33018 21517 ft 342 kts 264°
2026-05-05 21:20 51.72679 1.29217 20831 ft 349 kts 264°
2026-05-05 21:21 51.72423 1.25322 20034 ft 358 kts 264°
2026-05-05 21:21 51.72160 1.21329 19476 ft 358 kts 264°
2026-05-05 21:21 51.71896 1.17366 19040 ft 355 kts 264°
2026-05-05 21:21 51.71631 1.13393 18595 ft 353 kts 264°
2026-05-05 21:22 51.71364 1.09437 18129 ft 351 kts 264°
2026-05-05 21:22 51.71104 1.05581 17691 ft 348 kts 264°
2026-05-05 21:22 51.70840 1.01717 17271 ft 345 kts 264°
2026-05-05 21:22 51.70578 0.97890 16838 ft 343 kts 264°
2026-05-05 21:23 51.70318 0.94121 16415 ft 340 kts 264°
2026-05-05 21:23 51.70060 0.90394 15992 ft 337 kts 264°
2026-05-05 21:23 51.69799 0.86650 15571 ft 335 kts 264°
2026-05-05 21:23 51.69542 0.82961 15137 ft 332 kts 264°
2026-05-05 21:24 51.69282 0.79272 14745 ft 330 kts 264°
2026-05-05 21:24 51.69024 0.75628 14290 ft 328 kts 264°
2026-05-05 21:24 51.68766 0.71980 13863 ft 326 kts 264°
2026-05-05 21:24 51.68513 0.68407 13472 ft 324 kts 264°
2026-05-05 21:25 51.68258 0.64835 13088 ft 318 kts 264°
2026-05-05 21:25 51.68003 0.61284 12703 ft 313 kts 265°
2026-05-05 21:25 51.67754 0.57821 12291 ft 308 kts 265°
2026-05-05 21:25 51.67510 0.54449 11995 ft 299 kts 265°
2026-05-05 21:26 51.67270 0.51153 11973 ft 295 kts 265°
2026-05-05 21:26 51.67033 0.47888 11970 ft 295 kts 265°
2026-05-05 21:26 51.66795 0.44655 11817 ft 291 kts 265°
2026-05-05 21:26 51.66556 0.41404 11405 ft 292 kts 265°
2026-05-05 21:27 51.66317 0.38165 11014 ft 292 kts 265°
2026-05-05 21:27 51.66078 0.34936 10654 ft 290 kts 264°
2026-05-05 21:27 51.65841 0.31732 10297 ft 289 kts 264°
2026-05-05 21:27 51.65604 0.28558 9920 ft 288 kts 264°
2026-05-05 21:28 51.65367 0.25391 9562 ft 286 kts 264°
2026-05-05 21:28 51.65128 0.22206 9243 ft 284 kts 264°
2026-05-05 21:28 51.64893 0.19099 8988 ft 278 kts 265°
2026-05-05 21:28 51.64662 0.16053 8820 ft 271 kts 265°
2026-05-05 21:29 51.64481 0.13447 8620 ft 266 kts 266°
2026-05-05 21:29 51.64317 0.10528 8382 ft 262 kts 267°
2026-05-05 21:29 51.64162 0.07618 8085 ft 257 kts 267°
2026-05-05 21:29 51.64012 0.04816 7853 ft 252 kts 267°
2026-05-05 21:30 51.63860 0.01999 7646 ft 248 kts 267°
2026-05-05 21:30 51.63711 -0.00717 7411 ft 244 kts 267°
2026-05-05 21:30 51.63563 -0.03405 7164 ft 240 kts 267°
2026-05-05 21:30 51.63417 -0.06039 7066 ft 234 kts 267°
2026-05-05 21:31 51.63272 -0.08629 7047 ft 233 kts 267°
2026-05-05 21:31 51.63127 -0.11214 7030 ft 233 kts 267°
2026-05-05 21:31 51.62980 -0.13818 7027 ft 233 kts 267°
2026-05-05 21:31 51.62833 -0.16407 6998 ft 233 kts 267°
2026-05-05 21:32 51.62685 -0.18994 6942 ft 233 kts 267°
2026-05-05 21:32 51.62536 -0.21591 6941 ft 233 kts 267°
2026-05-05 21:32 51.62386 -0.24196 6935 ft 233 kts 267°
2026-05-05 21:32 51.62235 -0.26798 6937 ft 233 kts 268°
2026-05-05 21:33 51.62085 -0.29388 6935 ft 233 kts 268°
2026-05-05 21:33 51.61932 -0.31999 6932 ft 233 kts 268°
2026-05-05 21:33 51.61782 -0.34584 6931 ft 234 kts 267°
2026-05-05 21:33 51.61629 -0.37181 6931 ft 233 kts 267°
2026-05-05 21:34 51.61477 -0.39767 6930 ft 234 kts 267°
2026-05-05 21:34 51.61322 -0.42397 6930 ft 234 kts 267°
2026-05-05 21:34 51.61169 -0.44975 6929 ft 234 kts 267°
2026-05-05 21:34 51.61014 -0.47584 6928 ft 234 kts 267°
2026-05-05 21:35 51.60856 -0.50213 6929 ft 234 kts 267°
2026-05-05 21:35 51.60699 -0.52817 6927 ft 235 kts 267°
2026-05-05 21:35 51.60540 -0.55439 6930 ft 235 kts 267°
2026-05-05 21:35 51.60382 -0.58039 6926 ft 234 kts 267°
2026-05-05 21:36 51.60223 -0.60636 6927 ft 235 kts 267°
2026-05-05 21:36 51.60061 -0.63279 6932 ft 235 kts 267°
2026-05-05 21:36 51.59901 -0.65900 6954 ft 239 kts 266°
2026-05-05 21:36 51.59739 -0.68575 6673 ft 244 kts 266°
2026-05-05 21:37 51.59571 -0.71293 6340 ft 247 kts 266°
2026-05-05 21:37 51.59399 -0.74046 6047 ft 245 kts 266°
2026-05-05 21:37 51.59153 -0.76711 5890 ft 240 kts 253°
2026-05-05 21:37 51.58246 -0.78968 5499 ft 245 kts 220°
2026-05-05 21:38 51.56753 -0.80155 5145 ft 245 kts 188°
2026-05-05 21:38 51.55052 -0.80160 4831 ft 242 kts 172°
2026-05-05 21:38 51.53399 -0.79832 4532 ft 241 kts 171°
2026-05-05 21:38 51.51720 -0.79540 4227 ft 242 kts 172°
2026-05-05 21:39 51.50088 -0.79048 3945 ft 236 kts 150°
2026-05-05 21:39 51.48927 -0.77336 3738 ft 224 kts 118°
2026-05-05 21:39 51.48254 -0.75136 3550 ft 217 kts 106°
2026-05-05 21:39 51.47830 -0.72876 3366 ft 211 kts 98°
2026-05-05 21:40 51.47602 -0.70645 3257 ft 197 kts 92°
2026-05-05 21:40 51.47552 -0.68470 2861 ft 195 kts 85°
2026-05-05 21:40 51.47603 -0.66290 2278 ft 202 kts 84°
2026-05-05 21:40 51.47683 -0.64036 1851 ft 197 kts 83°
2026-05-05 21:41 51.47723 -0.61982 1754 ft 176 kts 84°
2026-05-05 21:41 51.47730 -0.60117 1548 ft 157 kts 86°
2026-05-05 21:41 51.47728 -0.58449 1316 ft 143 kts 84°
2026-05-05 21:41 51.47730 -0.56934 1101 ft 130 kts 84°
2026-05-05 21:42 51.47734 -0.55507 941 ft 128 kts 85°
2026-05-05 21:42 51.47736 -0.54087 783 ft 127 kts 85°
2026-05-05 21:42 51.47739 -0.52660 620 ft 127 kts 86°
2026-05-05 21:42 51.47742 -0.51234 464 ft 127 kts 86°
2026-05-05 21:43 51.47742 -0.49815 304 ft 129 kts 87°
2026-05-05 21:43 51.47749 -0.48380 132 ft 126 kts 87°
2026-05-05 21:43 51.47755 -0.47099 85 ft 100 kts 89°
2026-05-05 21:43 51.47757 -0.46252 82 ft 53 kts 89°
2026-05-05 21:44 51.47761 -0.45694 83 ft 41 kts 89°
2026-05-05 21:44 51.47725 -0.45484 84 ft 15 kts 155°
2026-05-05 21:44 51.47619 -0.45470 85 ft 15 kts 178°
2026-05-05 21:44 51.47527 -0.45456 87 ft 10 kts 147°
2026-05-05 21:45 51.47508 -0.45349 90 ft 9 kts 89°
2026-05-05 21:45 51.47508 -0.45234 90 ft 10 kts 89°
2026-05-05 21:45 51.47509 -0.45108 92 ft 10 kts 88°
2026-05-05 21:45 51.47509 -0.44993 94 ft 10 kts 90°
2026-05-05 21:46 51.47509 -0.44873 94 ft 11 kts 89°
2026-05-05 21:46 51.47510 -0.44730 91 ft 14 kts 88°
2026-05-05 21:46 51.47492 -0.44587 91 ft 13 kts 132°
2026-05-05 21:46 51.47428 -0.44561 92 ft 3 kts 175°
2026-05-05 21:47 51.47413 -0.44535 92 ft 3 kts 98°
2026-05-05 21:47 51.47414 -0.44478 92 ft 6 kts 88°
2026-05-05 21:47 51.47414 -0.44415 90 ft 2 kts 88°
2026-05-05 21:47 51.47414 -0.44406 90 ft 0 kts 89°